Other Public Products
Issued by NWS Charleston, SC

Current Version | Previous Version | Graphics & Text | Print | Product List | Glossary Off
Versions: 1 2 3 4 5 6 7 8 9 10 11 12 13 14 15 16 17 18 19 20 21 22 23 24 25 26 27 28 29 30 31 32 33 34 35 36 37 38 39 40 41 42 43 44 45 46 47 48 49 50

000
FPUS82 KCHS 010227
OPUCHS

TEST...KCHS/KSAV Gateway Observations...TEST
National Weather Service Charleston SC
1000 PM EDT SUN APR 30 2017

NOTE: "fair" indicates few or no clouds below 12,000 feet with no
significant weather and/or obstructions to visibility.

SCZ050-WAZ558-NCZ071-TXZ119-213-PAZ071-DCZ001-FLZ074-172-MI076-
NYZ176-178-MAZ016-IL014-TNZ027-NJZ106-GAZ044-MD014-010300-

...Gateway Observations for Charleston International...

CITY           SKY/WX    TMP DP  RH WIND       PRES   REMARKS
Chas Airport   PTCLDY    74  69  85 S10       30.13S
Seattle        CLOUDY    51  44  77 SE6       30.31S
Charlotte      CLOUDY    74  65  73 S15       30.07S
Dallas DFW     PTCLDY    59  32  36 W21G29    29.89R
Dallas Love    PTCLDY    60  32  34 NW16G26   29.90R
Philladelphia  CLOUDY    53  49  86 E13       30.13F
Wash National  PTCLDY    78  65  63 SE6       30.03R
Baltimore      MOCLDY    64  61  90 E12       30.06R
Miami          MOCLDY    80  71  74 E21G29    30.09R
Detroit        CLOUDY    54  53  97 E6        29.79F FOG
Newark         CLOUDY    53  42  66 E9        30.19R
Laguardia      CLOUDY    55  40  56 E10       30.19R
J F K          CLOUDY    51  44  77 E9        30.21R
Boston Logan   CLOUDY    47  38  71 SE8       30.28R
Ft. Lauderdale PTCLDY    79  71  76 E21       30.09R
Chicago O`Hare LGT RAIN  45  43  93 NE13      29.62F VSB 1/2
Chicago Midway CLOUDY    46  46 100 N3        29.64F
Houston Bush   CLEAR     63  44  50 CALM      29.93R
Houston Hobby  CLEAR     67  41  38 VRB3      29.93R
Nashville      MOCLDY    68  63  84 S9        29.79S
Atlanta        CLOUDY    74  65  73 W13       30.01R

$$

GAZ044-118-TXZ119-213-NCZ071-DCZ001-MDZ014-506-PAZ021-071-NJZ106-
NYZ176-178-MAZ106-OHZ011-021-055-MIZ076-KYZ091-ILZ014-INZ047-
MNZ060-ONZ431-010300-

...Gateway Observations for Savannah International...

CITY           SKY/WX    TMP DP  RH WIND       PRES   REMARKS
Savannah Arpt  MOCLDY    76  68  76 S12       30.11R
Atlanta        CLOUDY    74  65  73 W13       30.01R
Charlotte      CLOUDY    74  65  73 S15       30.07S
Dallas DFW     PTCLDY    59  32  36 W21G29    29.89R
Houston Bush   CLEAR     63  44  50 CALM      29.93R
Wash National  PTCLDY    78  65  63 SE6       30.03R
Wash Dulles    PTCLDY    78  61  55 S9        30.01R
Baltimore      MOCLDY    64  61  90 E12       30.06R
Philadelphia   CLOUDY    53  49  86 E13       30.13F
Newark         CLOUDY    53  42  66 E9        30.19R
Laguardia      CLOUDY    55  40  56 E10       30.19R
J F K          CLOUDY    51  44  77 E9        30.21R
Boston         CLOUDY    47  38  71 SE8       30.28R
Pittsburg      MOCLDY    77  61  57 S3        29.89R
Akron          CLOUDY    72  64  76 SE6       29.86S
Cleveland      CLOUDY    64  57  78 E7        29.87F
Cincinnati     CLOUDY    69  63  81 S23       29.77F
Columbus       CLOUDY    74  62  65 S6        29.82S
Detroit        CLOUDY    54  53  97 E6        29.79F FOG
Chicago O`Hare LGT RAIN  45  43  93 NE13      29.62F VSB 1/2
Minneapolis    LGT RAIN  44  34  67 NE17      29.70F
Indianapolis   CLOUDY    66  64  93 SE8       29.66F
Toronto Canada SHOWER    43  39  87 E8        29.94S

$$




USA.gov is the U.S. government's official web portal to all federal, state and local government web resources and services.